owner,sensor,date,latitude,longitude,vertical_datum,sea_water_practical_salinity,qcFlag 
SCCF RECON,ioos:station:SCCF:51:1,2009-06-01T00:00:00Z,26.5545,-82.1715,1.845,36.59,1111122 
SCCF RECON,ioos:station:SCCF:51:1,2009-06-01T01:00:00Z,26.5545,-82.1715,1.836,36.59,1111122 
SCCF RECON,ioos:station:SCCF:51:1,2009-06-01T02:00:00Z,26.5545,-82.1715,1.8,36.58,1111122 
SCCF RECON,ioos:station:SCCF:51:1,2009-06-01T03:00:00Z,26.5545,-82.1715,1.746,36.55,1111122 
SCCF RECON,ioos:station:SCCF:51:1,2009-06-01T04:00:00Z,26.5545,-82.1715,1.68,36.49,1111122 
SCCF RECON,ioos:station:SCCF:51:1,2009-06-01T05:00:00Z,26.5545,-82.1715,1.603,36.53,1111122 
SCCF RECON,ioos:station:SCCF:51:1,2009-06-01T06:00:00Z,26.5545,-82.1715,1.56,36.52,1111122 
SCCF RECON,ioos:station:SCCF:51:1,2009-06-01T07:00:00Z,26.5545,-82.1715,1.567,36.53,1111122 
SCCF RECON,ioos:station:SCCF:51:1,2009-06-01T08:00:00Z,26.5545,-82.1715,1.614,36.53,1111122 
SCCF RECON,ioos:station:SCCF:51:1,2009-06-01T09:00:00Z,26.5545,-82.1715,1.71,36.55,1111122 
SCCF RECON,ioos:station:SCCF:51:1,2009-06-01T10:00:00Z,26.5545,-82.1715,1.82,36.62,1111122 
SCCF RECON,ioos:station:SCCF:51:1,2009-06-01T11:00:00Z,26.5545,-82.1715,1.909,36.63,1111122 
SCCF RECON,ioos:station:SCCF:51:1,2009-06-01T12:00:00Z,26.5545,-82.1715,1.954,36.61,1111122 
SCCF RECON,ioos:station:SCCF:51:1,2009-06-01T13:00:00Z,26.5545,-82.1715,1.984,36.61,1111122 
SCCF RECON,ioos:station:SCCF:51:1,2009-06-01T14:00:00Z,26.5545,-82.1715,1.951,36.62,1111122 
SCCF RECON,ioos:station:SCCF:51:1,2009-06-01T15:00:00Z,26.5545,-82.1715,1.881,36.62,1111122 
SCCF RECON,ioos:station:SCCF:51:1,2009-06-01T16:00:00Z,26.5545,-82.1715,1.806,36.56,1111122 
SCCF RECON,ioos:station:SCCF:51:1,2009-06-01T17:00:00Z,26.5545,-82.1715,1.71,36.53,1111122 
SCCF RECON,ioos:station:SCCF:51:1,2009-06-01T18:00:00Z,26.5545,-82.1715,1.614,36.54,1111122 
SCCF RECON,ioos:station:SCCF:51:1,2009-06-01T19:00:00Z,26.5545,-82.1715,1.54,36.6,1111122 
SCCF RECON,ioos:station:SCCF:51:1,2009-06-01T20:00:00Z,26.5545,-82.1715,1.519,36.62,1111122 
SCCF RECON,ioos:station:SCCF:51:1,2009-06-01T21:00:00Z,26.5545,-82.1715,1.561,36.56,1111122 
SCCF RECON,ioos:station:SCCF:51:1,2009-06-01T22:00:00Z,26.5545,-82.1715,1.622,36.58,1111122 
SCCF RECON,ioos:station:SCCF:51:1,2009-06-01T23:00:00Z,26.5545,-82.1715,1.707,36.59,1111122 
SCCF RECON,ioos:station:SCCF:51:1,2009-06-02T00:00:00Z,26.5545,-82.1715,1.78,36.6,1111122 
SCCF RECON,ioos:station:SCCF:51:1,2009-06-02T01:00:00Z,26.5545,-82.1715,1.84,36.62,1111122 
SCCF RECON,ioos:station:SCCF:51:1,2009-06-02T02:00:00Z,26.5545,-82.1715,1.84,36.58,1111122 
SCCF RECON,ioos:station:SCCF:51:1,2009-06-02T03:00:00Z,26.5545,-82.1715,1.81,36.59,1111122 
SCCF RECON,ioos:station:SCCF:51:1,2009-06-02T04:00:00Z,26.5545,-82.1715,1.75,36.6,1111122 
SCCF RECON,ioos:station:SCCF:51:1,2009-06-02T05:00:00Z,26.5545,-82.1715,1.726,36.65,1111122 
SCCF RECON,ioos:station:SCCF:51:1,2009-06-02T06:00:00Z,26.5545,-82.1715,1.691,36.65,1111122 
SCCF RECON,ioos:station:SCCF:51:1,2009-06-02T07:00:00Z,26.5545,-82.1715,1.646,36.65,1111122 
SCCF RECON,ioos:station:SCCF:51:1,2009-06-02T08:00:00Z,26.5545,-82.1715,1.66,36.64,1111122 
SCCF RECON,ioos:station:SCCF:51:1,2009-06-02T09:00:00Z,26.5545,-82.1715,1.712,36.6,1111122 
SCCF RECON,ioos:station:SCCF:51:1,2009-06-02T10:00:00Z,26.5545,-82.1715,1.8,36.6,1111122 
SCCF RECON,ioos:station:SCCF:51:1,2009-06-02T11:00:00Z,26.5545,-82.1715,1.9,36.61,1111122 
SCCF RECON,ioos:station:SCCF:51:1,2009-06-02T12:00:00Z,26.5545,-82.1715,2.0,36.61,1111122 
SCCF RECON,ioos:station:SCCF:51:1,2009-06-02T13:00:00Z,26.5545,-82.1715,2.049,36.61,1111122 
SCCF RECON,ioos:station:SCCF:51:1,2009-06-02T14:00:00Z,26.5545,-82.1715,2.045,36.61,1111122 
SCCF RECON,ioos:station:SCCF:51:1,2009-06-02T17:00:00Z,26.5545,-82.1715,1.85,36.63,1111122 
SCCF RECON,ioos:station:SCCF:51:1,2009-06-02T18:00:00Z,26.5545,-82.1715,1.738,36.63,1111122 
SCCF RECON,ioos:station:SCCF:51:1,2009-06-02T19:00:00Z,26.5545,-82.1715,1.63,36.61,1111122 
SCCF RECON,ioos:station:SCCF:51:1,2009-06-02T20:00:00Z,26.5545,-82.1715,1.528,36.52,1111122 
SCCF RECON,ioos:station:SCCF:51:1,2009-06-02T21:00:00Z,26.5545,-82.1715,1.454,36.49,1111122 
SCCF RECON,ioos:station:SCCF:51:1,2009-06-02T22:00:00Z,26.5545,-82.1715,1.478,36.57,1111122 
SCCF RECON,ioos:station:SCCF:51:1,2009-06-02T23:00:00Z,26.5545,-82.1715,1.562,36.6,1111122 
SCCF RECON,ioos:station:SCCF:51:1,2009-06-03T00:00:00Z,26.5545,-82.1715,1.702,36.51,1111122 
SCCF RECON,ioos:station:SCCF:51:1,2009-06-03T01:00:00Z,26.5545,-82.1715,1.754,36.29,1111122 
SCCF RECON,ioos:station:SCCF:51:1,2009-06-03T02:00:00Z,26.5545,-82.1715,1.8,36.3,1111122 
SCCF RECON,ioos:station:SCCF:51:1,2009-06-03T03:00:00Z,26.5545,-82.1715,1.83,36.28,1111122 
SCCF RECON,ioos:station:SCCF:51:1,2009-06-03T04:00:00Z,26.5545,-82.1715,1.82,36.3,1111122 
SCCF RECON,ioos:station:SCCF:51:1,2009-06-03T05:00:00Z,26.5545,-82.1715,1.792,36.28,1111122 
SCCF RECON,ioos:station:SCCF:51:1,2009-06-03T06:00:00Z,26.5545,-82.1715,1.743,36.29,1111122 
SCCF RECON,ioos:station:SCCF:51:1,2009-06-03T07:00:00Z,26.5545,-82.1715,1.712,36.28,1111122 
SCCF RECON,ioos:station:SCCF:51:1,2009-06-03T08:00:00Z,26.5545,-82.1715,1.707,36.26,1111122 
SCCF RECON,ioos:station:SCCF:51:1,2009-06-03T09:00:00Z,26.5545,-82.1715,1.7,36.26,1111122 
SCCF RECON,ioos:station:SCCF:51:1,2009-06-03T10:00:00Z,26.5545,-82.1715,1.76,36.28,1111122 
SCCF RECON,ioos:station:SCCF:51:1,2009-06-03T11:00:00Z,26.5545,-82.1715,1.84,36.33,1111122 
SCCF RECON,ioos:station:SCCF:51:1,2009-06-03T12:00:00Z,26.5545,-82.1715,1.929,36.39,1111122 
SCCF RECON,ioos:station:SCCF:51:1,2009-06-03T13:00:00Z,26.5545,-82.1715,2.0,36.53,1111122 
SCCF RECON,ioos:station:SCCF:51:1,2009-06-03T14:00:00Z,26.5545,-82.1715,2.046,36.53,1111122 
SCCF RECON,ioos:station:SCCF:51:1,2009-06-03T15:00:00Z,26.5545,-82.1715,2.059,36.45,1111122 
SCCF RECON,ioos:station:SCCF:51:1,2009-06-03T16:00:00Z,26.5545,-82.1715,1.997,36.47,1111122 
SCCF RECON,ioos:station:SCCF:51:1,2009-06-03T17:00:00Z,26.5545,-82.1715,1.901,36.45,1111122 
SCCF RECON,ioos:station:SCCF:51:1,2009-06-03T18:00:00Z,26.5545,-82.1715,1.774,36.38,1111122 
SCCF RECON,ioos:station:SCCF:51:1,2009-06-03T19:00:00Z,26.5545,-82.1715,1.644,36.36,1111122 
SCCF RECON,ioos:station:SCCF:51:1,2009-06-03T20:00:00Z,26.5545,-82.1715,1.53,36.37,1111122 
SCCF RECON,ioos:station:SCCF:51:1,2009-06-03T21:00:00Z,26.5545,-82.1715,1.449,36.36,1111122 
SCCF RECON,ioos:station:SCCF:51:1,2009-06-03T22:00:00Z,26.5545,-82.1715,1.413,36.31,1111122 
SCCF RECON,ioos:station:SCCF:51:1,2009-06-03T23:00:00Z,26.5545,-82.1715,1.44,36.33,1111122 
SCCF RECON,ioos:station:SCCF:51:1,2009-06-04T00:00:00Z,26.5545,-82.1715,1.54,36.39,1111122 
SCCF RECON,ioos:station:SCCF:51:1,2009-06-04T01:00:00Z,26.5545,-82.1715,1.65,36.46,1111122 
SCCF RECON,ioos:station:SCCF:51:1,2009-06-04T02:00:00Z,26.5545,-82.1715,1.751,36.51,1111122 
SCCF RECON,ioos:station:SCCF:51:1,2009-06-04T03:00:00Z,26.5545,-82.1715,1.821,36.54,1111122 
SCCF RECON,ioos:station:SCCF:51:1,2009-06-04T04:00:00Z,26.5545,-82.1715,1.88,36.59,1111122 
SCCF RECON,ioos:station:SCCF:51:1,2009-06-04T05:00:00Z,26.5545,-82.1715,1.873,36.51,1111122 
SCCF RECON,ioos:station:SCCF:51:1,2009-06-04T06:00:00Z,26.5545,-82.1715,1.84,36.5,1111122 
SCCF RECON,ioos:station:SCCF:51:1,2009-06-04T07:00:00Z,26.5545,-82.1715,1.81,36.42,1111122 
SCCF RECON,ioos:station:SCCF:51:1,2009-06-04T08:00:00Z,26.5545,-82.1715,1.78,36.41,1111122 
SCCF RECON,ioos:station:SCCF:51:1,2009-06-04T09:00:00Z,26.5545,-82.1715,1.78,36.41,1111122 
SCCF RECON,ioos:station:SCCF:51:1,2009-06-04T10:00:00Z,26.5545,-82.1715,1.81,36.42,1111122 
SCCF RECON,ioos:station:SCCF:51:1,2009-06-04T11:00:00Z,26.5545,-82.1715,1.87,36.46,1111122 
SCCF RECON,ioos:station:SCCF:51:1,2009-06-04T12:00:00Z,26.5545,-82.1715,1.95,36.56,1111122 
SCCF RECON,ioos:station:SCCF:51:1,2009-06-04T13:00:00Z,26.5545,-82.1715,2.033,36.66,1111122 
SCCF RECON,ioos:station:SCCF:51:1,2009-06-04T14:00:00Z,26.5545,-82.1715,2.095,36.65,1111122 
SCCF RECON,ioos:station:SCCF:51:1,2009-06-04T15:00:00Z,26.5545,-82.1715,2.11,36.66,1111122 
SCCF RECON,ioos:station:SCCF:51:1,2009-06-04T16:00:00Z,26.5545,-82.1715,2.07,36.65,1111122 
SCCF RECON,ioos:station:SCCF:51:1,2009-06-04T17:00:00Z,26.5545,-82.1715,1.995,36.63,1111122 
SCCF RECON,ioos:station:SCCF:51:1,2009-06-04T18:00:00Z,26.5545,-82.1715,1.893,36.51,1111122 
SCCF RECON,ioos:station:SCCF:51:1,2009-06-04T19:00:00Z,26.5545,-82.1715,1.765,36.43,1111122 
SCCF RECON,ioos:station:SCCF:51:1,2009-06-04T20:00:00Z,26.5545,-82.1715,1.637,36.44,1111122 
SCCF RECON,ioos:station:SCCF:51:1,2009-06-04T21:00:00Z,26.5545,-82.1715,1.514,36.48,1111122 
SCCF RECON,ioos:station:SCCF:51:1,2009-06-04T22:00:00Z,26.5545,-82.1715,1.42,36.48,1111122 
SCCF RECON,ioos:station:SCCF:51:1,2009-06-04T23:00:00Z,26.5545,-82.1715,1.372,36.48,1111122 
SCCF RECON,ioos:station:SCCF:51:1,2009-06-05T00:00:00Z,26.5545,-82.1715,1.428,36.47,1111122 
SCCF RECON,ioos:station:SCCF:51:1,2009-06-05T01:00:00Z,26.5545,-82.1715,1.529,36.46,1111122 
SCCF RECON,ioos:station:SCCF:51:1,2009-06-05T02:00:00Z,26.5545,-82.1715,1.65,36.56,1111122 
SCCF RECON,ioos:station:SCCF:51:1,2009-06-05T03:00:00Z,26.5545,-82.1715,1.754,36.65,1111122 
SCCF RECON,ioos:station:SCCF:51:1,2009-06-05T04:00:00Z,26.5545,-82.1715,1.82,36.63,1111122 
SCCF RECON,ioos:station:SCCF:51:1,2009-06-05T05:00:00Z,26.5545,-82.1715,1.867,36.56,1111122 
SCCF RECON,ioos:station:SCCF:51:1,2009-06-05T06:00:00Z,26.5545,-82.1715,1.88,36.69,1111122 
SCCF RECON,ioos:station:SCCF:51:1,2009-06-05T07:00:00Z,26.5545,-82.1715,1.844,36.65,1111122 
SCCF RECON,ioos:station:SCCF:51:1,2009-06-05T08:00:00Z,26.5545,-82.1715,1.806,36.53,1111122 
SCCF RECON,ioos:station:SCCF:51:1,2009-06-05T09:00:00Z,26.5545,-82.1715,1.792,36.52,1111122 
SCCF RECON,ioos:station:SCCF:51:1,2009-06-05T10:00:00Z,26.5545,-82.1715,1.8,36.51,1111122 
SCCF RECON,ioos:station:SCCF:51:1,2009-06-05T11:00:00Z,26.5545,-82.1715,1.864,36.5,1111122 
SCCF RECON,ioos:station:SCCF:51:1,2009-06-05T12:00:00Z,26.5545,-82.1715,1.964,36.78,1111122 
SCCF RECON,ioos:station:SCCF:51:1,2009-06-05T13:00:00Z,26.5545,-82.1715,2.06,36.77,1111122 
SCCF RECON,ioos:station:SCCF:51:1,2009-06-05T14:00:00Z,26.5545,-82.1715,2.116,36.75,1111122 
SCCF RECON,ioos:station:SCCF:51:1,2009-06-05T15:00:00Z,26.5545,-82.1715,2.132,36.74,1111122 
SCCF RECON,ioos:station:SCCF:51:1,2009-06-05T16:00:00Z,26.5545,-82.1715,2.09,36.74,1111122 
SCCF RECON,ioos:station:SCCF:51:1,2009-06-05T17:00:00Z,26.5545,-82.1715,2.031,36.78,1111122 
SCCF RECON,ioos:station:SCCF:51:1,2009-06-05T18:00:00Z,26.5545,-82.1715,1.953,36.59,1111122 
SCCF RECON,ioos:station:SCCF:51:1,2009-06-05T19:00:00Z,26.5545,-82.1715,1.857,36.44,1111122 
SCCF RECON,ioos:station:SCCF:51:1,2009-06-05T20:00:00Z,26.5545,-82.1715,1.749,36.49,1111122 
SCCF RECON,ioos:station:SCCF:51:1,2009-06-05T21:00:00Z,26.5545,-82.1715,1.66,36.52,1111122 
SCCF RECON,ioos:station:SCCF:51:1,2009-06-05T22:00:00Z,26.5545,-82.1715,1.512,36.54,1111122 
SCCF RECON,ioos:station:SCCF:51:1,2009-06-05T23:00:00Z,26.5545,-82.1715,1.41,36.55,1111122 
SCCF RECON,ioos:station:SCCF:51:1,2009-06-06T00:00:00Z,26.5545,-82.1715,1.4,36.56,1111122 
SCCF RECON,ioos:station:SCCF:51:1,2009-06-06T01:00:00Z,26.5545,-82.1715,1.44,36.57,1111122 
SCCF RECON,ioos:station:SCCF:51:1,2009-06-06T02:00:00Z,26.5545,-82.1715,1.53,36.57,1111122 
SCCF RECON,ioos:station:SCCF:51:1,2009-06-06T03:00:00Z,26.5545,-82.1715,1.65,36.64,1111122 
SCCF RECON,ioos:station:SCCF:51:1,2009-06-06T04:00:00Z,26.5545,-82.1715,1.748,36.73,1111122 
SCCF RECON,ioos:station:SCCF:51:1,2009-06-06T05:00:00Z,26.5545,-82.1715,1.808,36.6,1111122 
SCCF RECON,ioos:station:SCCF:51:1,2009-06-06T06:00:00Z,26.5545,-82.1715,1.843,36.75,1111122 
SCCF RECON,ioos:station:SCCF:51:1,2009-06-06T07:00:00Z,26.5545,-82.1715,1.856,36.62,1111122 
SCCF RECON,ioos:station:SCCF:51:1,2009-06-06T08:00:00Z,26.5545,-82.1715,1.843,36.64,1111122 
SCCF RECON,ioos:station:SCCF:51:1,2009-06-06T09:00:00Z,26.5545,-82.1715,1.841,36.41,1111122 
SCCF RECON,ioos:station:SCCF:51:1,2009-06-06T10:00:00Z,26.5545,-82.1715,1.918,36.58,1111122 
SCCF RECON,ioos:station:SCCF:51:1,2009-06-06T11:00:00Z,26.5545,-82.1715,1.943,36.4,1111122 
SCCF RECON,ioos:station:SCCF:51:1,2009-06-06T12:00:00Z,26.5545,-82.1715,1.964,36.51,1111122 
SCCF RECON,ioos:station:SCCF:51:1,2009-06-06T13:00:00Z,26.5545,-82.1715,2.013,36.38,1111122 
SCCF RECON,ioos:station:SCCF:51:1,2009-06-06T14:00:00Z,26.5545,-82.1715,2.096,36.53,1111122 
SCCF RECON,ioos:station:SCCF:51:1,2009-06-06T15:00:00Z,26.5545,-82.1715,2.179,36.57,1111122 
SCCF RECON,ioos:station:SCCF:51:1,2009-06-06T16:00:00Z,26.5545,-82.1715,2.171,36.55,1111122 
SCCF RECON,ioos:station:SCCF:51:1,2009-06-06T17:00:00Z,26.5545,-82.1715,2.141,36.57,1111122 
SCCF RECON,ioos:station:SCCF:51:1,2009-06-06T18:00:00Z,26.5545,-82.1715,2.072,36.51,1111122 
SCCF RECON,ioos:station:SCCF:51:1,2009-06-06T19:00:00Z,26.5545,-82.1715,1.972,36.41,1111122 
SCCF RECON,ioos:station:SCCF:51:1,2009-06-06T20:00:00Z,26.5545,-82.1715,1.84,36.43,1111122 
SCCF RECON,ioos:station:SCCF:51:1,2009-06-06T21:00:00Z,26.5545,-82.1715,1.707,36.46,1111122 
SCCF RECON,ioos:station:SCCF:51:1,2009-06-06T22:00:00Z,26.5545,-82.1715,1.577,36.41,1111122 
SCCF RECON,ioos:station:SCCF:51:1,2009-06-06T23:00:00Z,26.5545,-82.1715,1.47,36.26,1111122 
SCCF RECON,ioos:station:SCCF:51:1,2009-06-07T00:00:00Z,26.5545,-82.1715,1.394,36.25,1111122 
SCCF RECON,ioos:station:SCCF:51:1,2009-06-07T01:00:00Z,26.5545,-82.1715,1.371,36.31,1111122 
SCCF RECON,ioos:station:SCCF:51:1,2009-06-07T02:00:00Z,26.5545,-82.1715,1.449,36.38,1111122 
SCCF RECON,ioos:station:SCCF:51:1,2009-06-07T03:00:00Z,26.5545,-82.1715,1.551,36.41,1111122 
SCCF RECON,ioos:station:SCCF:51:1,2009-06-07T04:00:00Z,26.5545,-82.1715,1.665,36.44,1111122 
SCCF RECON,ioos:station:SCCF:51:1,2009-06-07T05:00:00Z,26.5545,-82.1715,1.76,36.51,1111122 
SCCF RECON,ioos:station:SCCF:51:1,2009-06-07T06:00:00Z,26.5545,-82.1715,1.819,36.43,1111122 
SCCF RECON,ioos:station:SCCF:51:1,2009-06-07T07:00:00Z,26.5545,-82.1715,1.823,36.5,1111122 
SCCF RECON,ioos:station:SCCF:51:1,2009-06-07T08:00:00Z,26.5545,-82.1715,1.815,36.46,1111122 
SCCF RECON,ioos:station:SCCF:51:1,2009-06-07T09:00:00Z,26.5545,-82.1715,1.826,36.31,1111122 
SCCF RECON,ioos:station:SCCF:51:1,2009-06-07T10:00:00Z,26.5545,-82.1715,1.828,36.32,1111122 
SCCF RECON,ioos:station:SCCF:51:1,2009-06-07T11:00:00Z,26.5545,-82.1715,1.806,36.15,1111122 
SCCF RECON,ioos:station:SCCF:51:1,2009-06-07T12:00:00Z,26.5545,-82.1715,1.823,36.14,1111122 
SCCF RECON,ioos:station:SCCF:51:1,2009-06-07T13:00:00Z,26.5545,-82.1715,1.886,36.41,1111122 
SCCF RECON,ioos:station:SCCF:51:1,2009-06-07T14:00:00Z,26.5545,-82.1715,1.99,36.6,1111122 
SCCF RECON,ioos:station:SCCF:51:1,2009-06-07T15:00:00Z,26.5545,-82.1715,2.102,36.72,1111122 
SCCF RECON,ioos:station:SCCF:51:1,2009-06-07T16:00:00Z,26.5545,-82.1715,2.17,36.68,1111122 
SCCF RECON,ioos:station:SCCF:51:1,2009-06-07T17:00:00Z,26.5545,-82.1715,2.149,36.7,1111122 
SCCF RECON,ioos:station:SCCF:51:1,2009-06-07T18:00:00Z,26.5545,-82.1715,2.102,36.71,1111122 
SCCF RECON,ioos:station:SCCF:51:1,2009-06-07T19:00:00Z,26.5545,-82.1715,2.042,36.55,1111122 
SCCF RECON,ioos:station:SCCF:51:1,2009-06-07T20:00:00Z,26.5545,-82.1715,1.94,36.11,1111122 
SCCF RECON,ioos:station:SCCF:51:1,2009-06-07T21:00:00Z,26.5545,-82.1715,1.795,36.11,1111122 
SCCF RECON,ioos:station:SCCF:51:1,2009-06-07T22:00:00Z,26.5545,-82.1715,1.649,35.91,1111122 
SCCF RECON,ioos:station:SCCF:51:1,2009-06-07T23:00:00Z,26.5545,-82.1715,1.526,35.81,1111122 
SCCF RECON,ioos:station:SCCF:51:1,2009-06-08T00:00:00Z,26.5545,-82.1715,1.409,35.9,1111122 
SCCF RECON,ioos:station:SCCF:51:1,2009-06-08T01:00:00Z,26.5545,-82.1715,1.355,35.98,1111122 
SCCF RECON,ioos:station:SCCF:51:1,2009-06-08T02:00:00Z,26.5545,-82.1715,1.407,35.95,1111122 
SCCF RECON,ioos:station:SCCF:51:1,2009-06-08T03:00:00Z,26.5545,-82.1715,1.51,35.94,1111122 
SCCF RECON,ioos:station:SCCF:51:1,2009-06-08T04:00:00Z,26.5545,-82.1715,1.63,36.27,1111122 
SCCF RECON,ioos:station:SCCF:51:1,2009-06-08T05:00:00Z,26.5545,-82.1715,1.742,36.51,1111122 
SCCF RECON,ioos:station:SCCF:51:1,2009-06-08T06:00:00Z,26.5545,-82.1715,1.816,36.46,1111122 
SCCF RECON,ioos:station:SCCF:51:1,2009-06-08T07:00:00Z,26.5545,-82.1715,1.86,36.52,1111122 
SCCF RECON,ioos:station:SCCF:51:1,2009-06-08T08:00:00Z,26.5545,-82.1715,1.853,36.25,1111122 
SCCF RECON,ioos:station:SCCF:51:1,2009-06-08T09:00:00Z,26.5545,-82.1715,1.811,36.04,1111122 
SCCF RECON,ioos:station:SCCF:51:1,2009-06-08T10:00:00Z,26.5545,-82.1715,1.798,35.94,1111122 
SCCF RECON,ioos:station:SCCF:51:1,2009-06-08T11:00:00Z,26.5545,-82.1715,1.81,35.85,1111122 
SCCF RECON,ioos:station:SCCF:51:1,2009-06-08T12:00:00Z,26.5545,-82.1715,1.857,35.89,1111122 
SCCF RECON,ioos:station:SCCF:51:1,2009-06-08T13:00:00Z,26.5545,-82.1715,1.921,35.98,1111122 
SCCF RECON,ioos:station:SCCF:51:1,2009-06-08T14:00:00Z,26.5545,-82.1715,2.0,36.7,1111122 
SCCF RECON,ioos:station:SCCF:51:1,2009-06-08T15:00:00Z,26.5545,-82.1715,2.041,36.83,1111122 
SCCF RECON,ioos:station:SCCF:51:1,2009-06-08T16:00:00Z,26.5545,-82.1715,2.11,36.76,1111122 
SCCF RECON,ioos:station:SCCF:51:1,2009-06-08T17:00:00Z,26.5545,-82.1715,2.152,36.78,1111122 
SCCF RECON,ioos:station:SCCF:51:1,2009-06-08T18:00:00Z,26.5545,-82.1715,2.115,36.74,1111122 
SCCF RECON,ioos:station:SCCF:51:1,2009-06-08T19:00:00Z,26.5545,-82.1715,2.034,36.78,1111122 
SCCF RECON,ioos:station:SCCF:51:1,2009-06-08T20:00:00Z,26.5545,-82.1715,1.925,36.46,1111122 
SCCF RECON,ioos:station:SCCF:51:1,2009-06-08T21:00:00Z,26.5545,-82.1715,1.791,36.23,1111122 
SCCF RECON,ioos:station:SCCF:51:1,2009-06-08T22:00:00Z,26.5545,-82.1715,1.669,36.14,1111122 
SCCF RECON,ioos:station:SCCF:51:1,2009-06-08T23:00:00Z,26.5545,-82.1715,1.55,36.04,1111122 
SCCF RECON,ioos:station:SCCF:51:1,2009-06-09T00:00:00Z,26.5545,-82.1715,1.44,36.11,1111122 
SCCF RECON,ioos:station:SCCF:51:1,2009-06-09T01:00:00Z,26.5545,-82.1715,1.358,35.84,1111122 
SCCF RECON,ioos:station:SCCF:51:1,2009-06-09T02:00:00Z,26.5545,-82.1715,1.34,35.88,1111122 
SCCF RECON,ioos:station:SCCF:51:1,2009-06-09T03:00:00Z,26.5545,-82.1715,1.41,35.89,1111122 
SCCF RECON,ioos:station:SCCF:51:1,2009-06-09T04:00:00Z,26.5545,-82.1715,1.529,35.92,1111122 
SCCF RECON,ioos:station:SCCF:51:1,2009-06-09T05:00:00Z,26.5545,-82.1715,1.64,36.27,1111122 
SCCF RECON,ioos:station:SCCF:51:1,2009-06-09T06:00:00Z,26.5545,-82.1715,1.739,36.26,1111122 
SCCF RECON,ioos:station:SCCF:51:1,2009-06-09T07:00:00Z,26.5545,-82.1715,1.81,36.15,1111122 
SCCF RECON,ioos:station:SCCF:51:1,2009-06-09T08:00:00Z,26.5545,-82.1715,1.86,36.41,1111122 
SCCF RECON,ioos:station:SCCF:51:1,2009-06-09T09:00:00Z,26.5545,-82.1715,1.87,36.44,1111122 
SCCF RECON,ioos:station:SCCF:51:1,2009-06-09T10:00:00Z,26.5545,-82.1715,1.83,36.13,1111122 
SCCF RECON,ioos:station:SCCF:51:1,2009-06-09T11:00:00Z,26.5545,-82.1715,1.826,36.05,1111122 
SCCF RECON,ioos:station:SCCF:51:1,2009-06-09T12:00:00Z,26.5545,-82.1715,1.838,36.26,1111122 
SCCF RECON,ioos:station:SCCF:51:1,2009-06-09T13:00:00Z,26.5545,-82.1715,1.89,36.51,1111122 
SCCF RECON,ioos:station:SCCF:51:1,2009-06-09T14:00:00Z,26.5545,-82.1715,1.954,36.34,1111122 
SCCF RECON,ioos:station:SCCF:51:1,2009-06-09T15:00:00Z,26.5545,-82.1715,2.026,36.44,1111122 
SCCF RECON,ioos:station:SCCF:51:1,2009-06-09T16:00:00Z,26.5545,-82.1715,2.099,36.65,1111122 
SCCF RECON,ioos:station:SCCF:51:1,2009-06-09T17:00:00Z,26.5545,-82.1715,2.149,36.64,1111122 
SCCF RECON,ioos:station:SCCF:51:1,2009-06-09T18:00:00Z,26.5545,-82.1715,2.133,36.64,1111122 
SCCF RECON,ioos:station:SCCF:51:1,2009-06-09T19:00:00Z,26.5545,-82.1715,2.067,36.51,1111122 
SCCF RECON,ioos:station:SCCF:51:1,2009-06-09T20:00:00Z,26.5545,-82.1715,1.966,36.48,1111122 
SCCF RECON,ioos:station:SCCF:51:1,2009-06-09T21:00:00Z,26.5545,-82.1715,1.841,36.38,1111122 
SCCF RECON,ioos:station:SCCF:51:1,2009-06-09T22:00:00Z,26.5545,-82.1715,1.714,36.25,1111122 
SCCF RECON,ioos:station:SCCF:51:1,2009-06-09T23:00:00Z,26.5545,-82.1715,1.598,36.07,1111122 
SCCF RECON,ioos:station:SCCF:51:1,2009-06-10T00:00:00Z,26.5545,-82.1715,1.493,36.17,1111122 
SCCF RECON,ioos:station:SCCF:51:1,2009-06-10T01:00:00Z,26.5545,-82.1715,1.401,36.17,1111122 
SCCF RECON,ioos:station:SCCF:51:1,2009-06-10T02:00:00Z,26.5545,-82.1715,1.349,36.19,1111122 
SCCF RECON,ioos:station:SCCF:51:1,2009-06-10T03:00:00Z,26.5545,-82.1715,1.38,36.33,1111122 
SCCF RECON,ioos:station:SCCF:51:1,2009-06-10T04:00:00Z,26.5545,-82.1715,1.461,36.35,1111122 
SCCF RECON,ioos:station:SCCF:51:1,2009-06-10T05:00:00Z,26.5545,-82.1715,1.564,36.3,1111122 
SCCF RECON,ioos:station:SCCF:51:1,2009-06-10T06:00:00Z,26.5545,-82.1715,1.665,36.66,1111122 
SCCF RECON,ioos:station:SCCF:51:1,2009-06-10T07:00:00Z,26.5545,-82.1715,1.751,36.65,1111122 
SCCF RECON,ioos:station:SCCF:51:1,2009-06-10T08:00:00Z,26.5545,-82.1715,1.81,36.68,1111122 
SCCF RECON,ioos:station:SCCF:51:1,2009-06-10T09:00:00Z,26.5545,-82.1715,1.836,36.67,1111122 
SCCF RECON,ioos:station:SCCF:51:1,2009-06-10T10:00:00Z,26.5545,-82.1715,1.814,36.61,1111122 
SCCF RECON,ioos:station:SCCF:51:1,2009-06-10T11:00:00Z,26.5545,-82.1715,1.787,36.56,1111122 
SCCF RECON,ioos:station:SCCF:51:1,2009-06-10T12:00:00Z,26.5545,-82.1715,1.781,36.54,1111122 
SCCF RECON,ioos:station:SCCF:51:1,2009-06-10T13:00:00Z,26.5545,-82.1715,1.81,36.57,1111122 
SCCF RECON,ioos:station:SCCF:51:1,2009-06-10T14:00:00Z,26.5545,-82.1715,1.853,36.68,1111122 
SCCF RECON,ioos:station:SCCF:51:1,2009-06-10T15:00:00Z,26.5545,-82.1715,1.918,36.63,1111122 
SCCF RECON,ioos:station:SCCF:51:1,2009-06-10T16:00:00Z,26.5545,-82.1715,1.989,36.62,1111122 
SCCF RECON,ioos:station:SCCF:51:1,2009-06-10T17:00:00Z,26.5545,-82.1715,2.06,36.65,1111122 
SCCF RECON,ioos:station:SCCF:51:1,2009-06-10T18:00:00Z,26.5545,-82.1715,2.105,36.58,1111122 
SCCF RECON,ioos:station:SCCF:51:1,2009-06-10T19:00:00Z,26.5545,-82.1715,2.08,36.58,1111122 
SCCF RECON,ioos:station:SCCF:51:1,2009-06-10T20:00:00Z,26.5545,-82.1715,2.012,36.65,1111122 
SCCF RECON,ioos:station:SCCF:51:1,2009-06-10T21:00:00Z,26.5545,-82.1715,1.915,36.67,1111122 
SCCF RECON,ioos:station:SCCF:51:1,2009-06-10T22:00:00Z,26.5545,-82.1715,1.799,36.66,1111122 
SCCF RECON,ioos:station:SCCF:51:1,2009-06-10T23:00:00Z,26.5545,-82.1715,1.69,36.48,1111122 
SCCF RECON,ioos:station:SCCF:51:1,2009-06-11T00:00:00Z,26.5545,-82.1715,1.581,36.56,1111122 
SCCF RECON,ioos:station:SCCF:51:1,2009-06-11T01:00:00Z,26.5545,-82.1715,1.485,36.55,1111122 
SCCF RECON,ioos:station:SCCF:51:1,2009-06-11T02:00:00Z,26.5545,-82.1715,1.416,36.59,1111122 
SCCF RECON,ioos:station:SCCF:51:1,2009-06-11T03:00:00Z,26.5545,-82.1715,1.392,36.61,1111122 
SCCF RECON,ioos:station:SCCF:51:1,2009-06-11T04:00:00Z,26.5545,-82.1715,1.454,36.64,1111122 
SCCF RECON,ioos:station:SCCF:51:1,2009-06-11T05:00:00Z,26.5545,-82.1715,1.529,36.62,1111122 
SCCF RECON,ioos:station:SCCF:51:1,2009-06-11T06:00:00Z,26.5545,-82.1715,1.63,36.6,1111122 
SCCF RECON,ioos:station:SCCF:51:1,2009-06-11T07:00:00Z,26.5545,-82.1715,1.735,36.64,1111122 
SCCF RECON,ioos:station:SCCF:51:1,2009-06-11T08:00:00Z,26.5545,-82.1715,1.81,36.58,1111122 
SCCF RECON,ioos:station:SCCF:51:1,2009-06-11T09:00:00Z,26.5545,-82.1715,1.86,36.61,1111122 
SCCF RECON,ioos:station:SCCF:51:1,2009-06-11T10:00:00Z,26.5545,-82.1715,1.87,36.65,1111122 
SCCF RECON,ioos:station:SCCF:51:1,2009-06-11T11:00:00Z,26.5545,-82.1715,1.852,36.62,1111122 
SCCF RECON,ioos:station:SCCF:51:1,2009-06-11T12:00:00Z,26.5545,-82.1715,1.829,36.66,1111122 
SCCF RECON,ioos:station:SCCF:51:1,2009-06-11T13:00:00Z,26.5545,-82.1715,1.837,36.64,1111122 
SCCF RECON,ioos:station:SCCF:51:1,2009-06-11T14:00:00Z,26.5545,-82.1715,1.864,36.66,1111122 
SCCF RECON,ioos:station:SCCF:51:1,2009-06-11T15:00:00Z,26.5545,-82.1715,1.911,36.65,1111122 
SCCF RECON,ioos:station:SCCF:51:1,2009-06-11T16:00:00Z,26.5545,-82.1715,1.962,36.65,1111122 
SCCF RECON,ioos:station:SCCF:51:1,2009-06-11T17:00:00Z,26.5545,-82.1715,2.023,36.6,1111122 
SCCF RECON,ioos:station:SCCF:51:1,2009-06-11T18:00:00Z,26.5545,-82.1715,2.08,36.58,1111122 
SCCF RECON,ioos:station:SCCF:51:1,2009-06-11T19:00:00Z,26.5545,-82.1715,2.099,36.56,1111122 